Location: ??
(34.7707°N, 135.6540°E)
Time: 08:00:56
(UTC+00:00)

CZ-4B R/B - Pass Details

Date: 09 April 2020
Orbit: 391 x 466 km, 97.6° (Epoch: 24 May)

Event Time Altitude Azimuth Distance (km) Brightness Sun altitude
Exits shadow 19:29:15 19° 217° (SW) 1,186 3.0 -13.3°
Maximum altitude 19:30:58 28° 262° (W) 910 2.4 -13.0°
Drops below altitude 10° 19:34:01 10° 323° (NW) 1,624 4.0 -12.4°
Sets 19:36:16 0° 336° (NNW) 2,499 5.1 -12.0°
